This is the latest recevied weather packets stored in our database for station/object W8KVG. If no packets are shown the sender has not sent any weather packets the latest 10 day(s).
| Time | Temp. | Humidity | Pressure | Rain* | Wind** | Luminosity | Snow |
|---|---|---|---|---|---|---|---|
| 1777724696 | 3.89° C | 97% | 1014.6 hPa | 0 mm | - | 28 W/m² | - |
| 1777724394 | 3.89° C | 97% | 1014.9 hPa | 0 mm | - | 17 W/m² | - |
| 1777724091 | 3.33° C | 97% | 1014.7 hPa | 0 mm | - | 22 W/m² | - |
| 1777723789 | 3.89° C | 98% | 1014.7 hPa | 0 mm | - | 18 W/m² | - |
| 1777723484 | 3.33° C | 98% | 1014.8 hPa | 0 mm | - | 12 W/m² | - |
| 1777723182 | 3.33° C | 98% | 1014.9 hPa | 0 mm | - | 18 W/m² | - |
| 1777722879 | 3.89° C | 98% | 1015 hPa | 0 mm | - | 24 W/m² | - |
| 1777722575 | 3.89° C | 98% | 1014.8 hPa | 0 mm | - | 61 W/m² | - |
| 1777722272 | 3.33° C | 98% | 1014.6 hPa | 0 mm | - | 56 W/m² | - |
| 1777721969 | 2.78° C | 97% | 1014.7 hPa | 0 mm | - | 47 W/m² | - |
| 1777721667 | 3.33° C | 97% | 1014.8 hPa | 0 mm | - | 37 W/m² | - |
| 1777721366 | 3.33° C | 98% | 1014.9 hPa | 0 mm | - | 31 W/m² | - |
| 1777721062 | 2.78° C | 98% | 1014.7 hPa | 0 mm | - | 34 W/m² | - |
| 1777720760 | 2.22° C | 98% | 1014.7 hPa | 0 mm | - | 26 W/m² | - |
| 1777720457 | 1.67° C | 97% | 1014.6 hPa | 0 mm | - | 19 W/m² | - |
| 1777720154 | 1.67° C | 97% | 1014.6 hPa | 0 mm | - | 15 W/m² | - |
| 1777719852 | 2.22° C | 97% | 1014.5 hPa | 0 mm | - | 14 W/m² | - |
| 1777719549 | 2.22° C | 98% | 1014.6 hPa | 0 mm | - | 11 W/m² | - |
| 1777719246 | 2.22° C | 98% | 1014.6 hPa | 0 mm | - | 10 W/m² | - |
| 1777718944 | 2.22° C | 97% | 1014.5 hPa | 0 mm | - | 8 W/m² | - |
| 1777718641 | 2.22° C | 98% | 1014.7 hPa | 0 mm | - | 7 W/m² | - |
| 1777718338 | 2.22° C | 98% | 1014.6 hPa | 0 mm | - | 5 W/m² | - |
| 1777718036 | 2.22° C | 98% | 1014.6 hPa | 0 mm | - | 4 W/m² | - |
| 1777717732 | 2.22° C | 98% | 1014.6 hPa | 0 mm | - | 2 W/m² | - |
| 1777717429 | 2.22° C | 98% | 1014.7 hPa | 0 mm | - | 1 W/m² | - |
* Rain latest hour (hover to see other rain measurements)
** Current wind speed in m/s (hover to see current wind gust speed)